Precipitable_Water
1.12 1.11 1.11 1.08 1.09 1.10 1.08 1.07 1.01 0.95 0.88 0.83 0.78 0.80 0.79 0.77 0.81 0.81 0.77 0.74 0.73 0.70 0.67 0.65 0.65 0.66 0.63 0.64 0.64 0.64 0.64 0.64 0.66 0.67 0.66 0.65 0.64 0.64 0.62 0.60 0.57 0.58 0.62 0.61 0.60 0.59 0.58 0.58 0.60 0.62 0.63 0.62 0.60 0.56 0.56 0.56 0.58 0.58 0.55 0.54 0.60 0.64 0.61 0.58 0.51 0.47 0.48 0.54 0.54 0.56 0.58 0.56 0.54 0.58 0.58 0.58 0.60 0.58 0.57 0.59 0.58 0.54 0.54 0.55 0.55
1.10 1.11 1.11 1.12 1.09 1.09 1.09 1.08 1.07 1.00 0.91 0.82 0.75 0.76 0.77 0.74 0.80 0.81 0.76 0.75 0.74 0.73 0.71 0.70 0.68 0.65 0.64 0.66 0.65 0.65 0.64 0.66 0.67 0.67 0.64 0.64 0.66 0.67 0.67 0.66 0.64 0.64 0.65 0.64 0.66 0.66 0.65 0.61 0.57 0.57 0.61 0.64 0.63 0.61 0.65 0.63 0.58 0.59 0.62 0.62 0.58 0.61 0.63 0.58 0.57 0.55 0.53 0.57 0.56 0.65 0.64 0.64 0.55 0.61 0.62 0.61 0.61 0.61 0.56 0.59 0.60 0.58 0.58 0.58 0.56
1.12 1.10 1.12 1.14 1.13 1.09 1.06 1.05 1.06 1.02 0.93 0.82 0.74 0.74 0.78 0.77 0.83 0.79 0.74 0.74 0.74 0.74 0.72 0.72 0.70 0.68 0.66 0.67 0.67 0.66 0.67 0.66 0.69 0.67 0.64 0.63 0.64 0.67 0.68 0.67 0.64 0.63 0.64 0.66 0.68 0.68 0.65 0.65 0.63 0.63 0.63 0.62 0.63 0.63 0.66 0.65 0.64 0.65 0.67 0.71 0.71 0.71 0.71 0.67 0.63 0.60 0.59 0.59 0.62 0.59 0.63 0.64 0.63 0.59 0.63 0.65 0.64 0.62 0.59 0.60 0.60 0.59 0.60 0.60 0.58
1.15 1.13 1.12 1.12 1.14 1.12 1.08 1.07 1.06 1.02 0.96 0.86 0.74 0.78 0.79 0.78 0.76 0.74 0.74 0.72 0.72 0.75 0.74 0.70 0.70 0.69 0.67 0.64 0.65 0.66 0.67 0.67 0.67 0.66 0.62 0.66 0.65 0.63 0.66 0.67 0.67 0.65 0.66 0.71 0.73 0.71 0.73 0.70 0.68 0.70 0.67 0.66 0.63 0.61 0.63 0.68 0.69 0.68 0.73 0.74 0.75 0.76 0.77 0.78 0.75 0.67 0.64 0.59 0.58 0.58 0.64 0.67 0.64 0.64 0.66 0.64 0.63 0.62 0.61 0.62 0.62 0.61 0.62 0.63 0.59
1.10 1.10 1.09 1.10 1.11 1.08 1.06 1.04 1.01 0.98 0.98 0.90 0.81 0.85 0.80 0.75 0.71 0.70 0.78 0.74 0.72 0.75 0.75 0.69 0.71 0.71 0.69 0.66 0.67 0.66 0.69 0.68 0.68 0.66 0.67 0.67 0.67 0.67 0.68 0.69 0.74 0.77 0.76 0.78 0.77 0.79 0.82 0.82 0.80 0.80 0.77 0.74 0.69 0.76 0.76 0.75 0.74 0.72 0.72 0.74 0.75 0.76 0.80 0.79 0.77 0.75 0.69 0.64 0.65 0.66 0.68 0.70 0.69 0.68 0.67 0.63 0.65 0.66 0.66 0.65 0.65 0.66 0.65 0.65 0.64
1.07 1.05 1.07 1.06 1.07 1.07 1.04 0.95 0.92 0.94 0.96 0.93 0.88 0.92 0.87 0.75 0.69 0.70 0.81 0.82 0.79 0.77 0.77 0.71 0.71 0.72 0.72 0.72 0.73 0.72 0.73 0.72 0.71 0.73 0.74 0.74 0.74 0.74 0.75 0.78 0.81 0.85 0.86 0.87 0.86 0.87 0.86 0.87 0.88 0.87 0.83 0.83 0.79 0.83 0.82 0.82 0.83 0.80 0.77 0.77 0.79 0.80 0.81 0.83 0.83 0.82 0.80 0.78 0.74 0.73 0.74 0.72 0.74 0.71 0.70 0.68 0.64 0.61 0.63 0.66 0.67 0.67 0.65 0.64 0.63
1.04 1.03 1.01 1.00 1.00 1.06 1.03 0.97 0.97 0.99 1.01 1.02 0.98 0.99 0.95 0.86 0.75 0.73 0.82 0.81 0.82 0.81 0.79 0.74 0.75 0.76 0.78 0.79 0.79 0.79 0.82 0.83 0.84 0.83 0.87 0.86 0.88 0.87 0.87 0.88 0.87 0.88 0.90 0.91 0.91 0.92 0.94 0.93 0.93 0.94 0.90 0.89 0.87 0.84 0.84 0.84 0.85 0.85 0.84 0.81 0.84 0.83 0.83 0.82 0.82 0.82 0.81 0.79 0.79 0.78 0.74 0.73 0.70 0.64 0.68 0.68 0.65 0.63 0.60 0.59 0.59 0.64 0.64 0.61 0.56
1.00 0.96 0.98 1.05 1.09 1.11 1.12 1.16 1.17 1.16 1.16 1.10 1.06 1.03 1.02 0.99 0.95 0.86 0.89 0.82 0.81 0.82 0.80 0.76 0.80 0.80 0.82 0.81 0.84 0.87 0.91 0.95 0.97 1.02 0.98 1.00 0.97 0.98 0.98 0.96 0.93 0.93 0.96 0.95 0.97 0.98 0.99 1.01 1.01 1.00 0.98 0.96 0.92 0.88 0.85 0.82 0.85 0.82 0.84 0.82 0.79 0.77 0.76 0.76 0.74 0.73 0.74 0.74 0.70 0.66 0.68 0.66 0.66 0.67 0.68 0.66 0.63 0.64 0.63 0.59 0.53 0.54 0.54 0.54 0.52
1.04 1.03 0.99 0.98 1.03 1.07 1.08 1.10 1.14 1.12 1.07 1.11 1.11 1.18 1.14 1.12 1.08 1.01 0.96 0.91 0.89 0.88 0.85 0.85 0.85 0.83 0.82 0.84 0.87 0.91 0.93 0.94 1.01 1.13 1.14 1.11 1.03 0.97 0.99 1.02 1.03 1.03 1.03 1.05 1.04 1.03 1.07 1.12 1.17 1.15 1.12 1.07 1.01 0.96 0.92 0.89 0.86 0.82 0.84 0.85 0.82 0.77 0.74 0.71 0.69 0.69 0.68 0.66 0.66 0.68 0.66 0.65 0.66 0.65 0.62 0.62 0.60 0.59 0.62 0.60 0.56 0.54 0.53 0.50 0.52
1.03 1.01 0.99 1.02 1.04 1.09 1.06 1.04 1.03 1.03 1.04 1.05 1.04 0.98 1.01 1.03 1.01 1.00 1.05 1.05 0.99 0.95 0.92 0.91 0.90 0.90 0.92 0.93 0.95 0.98 1.01 1.01 0.97 1.06 1.09 1.09 1.04 0.98 0.97 0.99 1.07 1.08 1.04 1.03 1.02 1.04 1.03 1.04 1.05 1.08 1.13 1.12 1.06 1.01 0.96 0.94 0.92 0.90 0.89 0.87 0.85 0.81 0.76 0.72 0.69 0.67 0.65 0.63 0.63 0.64 0.62 0.62 0.63 0.65 0.63 0.64 0.65 0.63 0.57 0.55 0.50 0.50 0.49 0.48 0.48
0.96 0.97 0.98 1.02 1.03 1.05 1.04 1.02 1.05 1.01 1.02 1.04 1.04 1.03 1.02 1.01 0.98 0.98 0.99 1.00 1.00 1.01 1.00 0.97 0.97 0.98 1.00 1.01 0.98 0.98 1.02 1.03 1.08 1.10 1.04 1.01 1.02 1.02 1.01 1.03 1.07 0.94 0.89 0.93 0.95 0.99 1.02 1.01 1.02 1.03 1.07 1.08 1.10 1.04 1.01 0.98 0.94 0.92 0.93 0.92 0.89 0.84 0.77 0.70 0.66 0.64 0.61 0.60 0.62 0.62 0.60 0.59 0.62 0.65 0.63 0.62 0.62 0.60 0.57 0.55 0.52 0.51 0.47 0.43 0.39
0.97 0.96 1.00 1.02 1.03 1.05 1.06 1.06 1.04 1.04 1.03 1.02 1.01 1.01 1.01 1.00 0.99 1.01 1.00 1.01 1.04 1.03 1.01 1.02 1.00 0.99 0.99 1.02 1.01 0.99 0.98 0.96 0.96 0.95 0.92 0.95 0.97 0.96 0.99 0.98 0.95 0.92 0.93 0.92 0.94 0.98 0.99 0.99 1.02 1.02 1.02 1.03 1.03 1.00 0.97 0.95 0.94 0.91 0.87 0.81 0.75 0.70 0.68 0.65 0.63 0.62 0.60 0.59 0.59 0.61 0.62 0.60 0.61 0.63 0.62 0.60 0.60 0.61 0.59 0.57 0.54 0.50 0.47 0.45 0.44
0.97 0.98 1.00 1.00 0.99 1.00 1.02 1.02 1.01 1.01 1.00 0.99 0.98 0.98 0.96 0.94 0.93 0.93 0.92 0.96 0.98 0.96 0.96 0.96 0.95 0.95 0.95 0.93 0.95 0.97 0.95 0.97 0.96 0.95 0.93 0.92 0.93 0.94 0.93 0.95 0.91 0.92 0.92 0.92 0.94 0.94 0.95 0.94 0.96 0.97 1.00 1.00 0.96 0.93 0.88 0.82 0.79 0.79 0.74 0.72 0.71 0.69 0.66 0.63 0.63 0.62 0.61 0.58 0.55 0.57 0.60 0.60 0.58 0.60 0.62 0.60 0.61 0.57 0.56 0.53 0.52 0.50 0.49 0.46 0.46
0.87 0.87 0.90 0.90 0.91 0.93 0.95 0.94 0.93 0.92 0.94 0.92 0.95 0.93 0.93 0.92 0.95 0.94 0.94 0.95 0.93 0.91 0.91 0.90 0.93 0.95 0.96 0.94 0.94 0.96 0.96 0.98 0.96 0.90 0.87 0.88 0.91 0.93 0.92 0.93 0.91 0.90 0.92 0.91 0.91 0.92 0.91 0.90 0.86 0.89 0.91 0.86 0.80 0.79 0.79 0.76 0.74 0.72 0.72 0.72 0.69 0.67 0.65 0.63 0.60 0.59 0.58 0.56 0.55 0.53 0.60 0.61 0.58 0.59 0.62 0.64 0.58 0.54 0.52 0.50 0.51 0.48 0.46 0.45 0.47
0.71 0.71 0.72 0.77 0.81 0.82 0.79 0.88 0.90 0.92 0.95 0.95 0.92 0.90 0.92 0.93 0.94 0.95 0.91 0.86 0.84 0.84 0.86 0.88 0.91 0.94 0.96 0.95 0.92 0.90 0.90 0.90 0.88 0.89 0.90 0.91 0.91 0.90 0.90 0.92 0.92 0.93 0.92 0.90 0.92 0.92 0.90 0.88 0.84 0.84 0.86 0.80 0.77 0.78 0.75 0.73 0.70 0.66 0.64 0.59 0.62 0.61 0.60 0.59 0.59 0.59 0.58 0.58 0.56 0.58 0.61 0.62 0.64 0.64 0.63 0.61 0.58 0.56 0.54 0.51 0.49 0.47 0.46 0.46 0.45
0.68 0.68 0.66 0.65 0.64 0.63 0.66 0.72 0.78 0.84 0.87 0.85 0.86 0.87 0.89 0.90 0.88 0.89 0.87 0.88 0.89 0.88 0.89 0.89 0.89 0.88 0.89 0.90 0.87 0.86 0.90 0.91 0.89 0.86 0.86 0.87 0.88 0.90 0.90 0.89 0.88 0.86 0.86 0.86 0.88 0.90 0.89 0.87 0.83 0.84 0.80 0.75 0.73 0.71 0.68 0.67 0.67 0.67 0.62 0.62 0.58 0.57 0.55 0.57 0.59 0.59 0.60 0.60 0.61 0.62 0.62 0.61 0.61 0.59 0.58 0.57 0.56 0.55 0.53 0.51 0.49 0.46 0.43 0.39 0.37
0.68 0.67 0.65 0.64 0.62 0.62 0.61 0.61 0.62 0.64 0.65 0.65 0.71 0.79 0.76 0.80 0.84 0.83 0.81 0.85 0.83 0.84 0.83 0.84 0.86 0.86 0.86 0.86 0.85 0.85 0.88 0.88 0.86 0.85 0.87 0.90 0.89 0.87 0.81 0.79 0.76 0.80 0.83 0.85 0.86 0.82 0.78 0.77 0.80 0.77 0.75 0.70 0.67 0.61 0.56 0.53 0.52 0.65 0.65 0.62 0.57 0.55 0.55 0.56 0.55 0.56 0.57 0.58 0.59 0.60 0.60 0.58 0.57 0.56 0.56 0.56 0.53 0.51 0.48 0.45 0.42 0.42 0.38 0.33 0.33
0.64 0.65 0.65 0.66 0.66 0.68 0.67 0.65 0.65 0.65 0.64 0.64 0.67 0.72 0.77 0.84 0.83 0.84 0.83 0.82 0.83 0.82 0.82 0.81 0.85 0.86 0.82 0.79 0.79 0.77 0.78 0.82 0.84 0.86 0.86 0.83 0.81 0.79 0.67 0.71 0.72 0.72 0.74 0.79 0.80 0.82 0.78 0.74 0.75 0.71 0.67 0.62 0.58 0.54 0.51 0.51 0.53 0.56 0.60 0.62 0.60 0.57 0.58 0.56 0.56 0.56 0.57 0.57 0.57 0.57 0.56 0.56 0.56 0.56 0.54 0.53 0.51 0.50 0.46 0.40 0.40 0.37 0.32 0.31 0.28
0.67 0.66 0.67 0.67 0.68 0.70 0.71 0.71 0.70 0.69 0.68 0.68 0.70 0.71 0.71 0.71 0.74 0.82 0.80 0.77 0.78 0.78 0.77 0.73 0.72 0.76 0.78 0.79 0.78 0.74 0.73 0.75 0.77 0.76 0.73 0.71 0.68 0.63 0.60 0.63 0.69 0.71 0.72 0.72 0.75 0.75 0.74 0.70 0.64 0.60 0.58 0.55 0.52 0.51 0.50 0.51 0.53 0.54 0.60 0.60 0.58 0.57 0.59 0.60 0.58 0.56 0.55 0.53 0.51 0.50 0.51 0.52 0.53 0.53 0.52 0.51 0.49 0.47 0.45 0.41 0.40 0.36 0.32 0.31 0.31
0.69 0.67 0.67 0.68 0.68 0.70 0.71 0.72 0.73 0.71 0.71 0.70 0.72 0.71 0.70 0.70 0.71 0.73 0.76 0.76 0.74 0.76 0.77 0.77 0.74 0.74 0.76 0.78 0.78 0.73 0.69 0.65 0.63 0.61 0.59 0.56 0.52 0.48 0.57 0.61 0.66 0.68 0.70 0.69 0.65 0.65 0.64 0.62 0.58 0.56 0.54 0.54 0.53 0.52 0.53 0.55 0.57 0.58 0.58 0.58 0.58 0.57 0.64 0.63 0.62 0.61 0.59 0.58 0.56 0.55 0.52 0.52 0.50 0.50 0.50 0.49 0.49 0.47 0.45 0.44 0.43 0.40 0.36 0.34 0.34
0.69 0.66 0.64 0.64 0.64 0.66 0.68 0.69 0.69 0.67 0.66 0.66 0.66 0.67 0.67 0.66 0.65 0.66 0.67 0.68 0.66 0.67 0.70 0.71 0.73 0.71 0.71 0.76 0.73 0.69 0.63 0.57 0.52 0.48 0.43 0.40 0.38 0.37 0.45 0.58 0.66 0.68 0.69 0.76 0.71 0.69 0.66 0.61 0.59 0.58 0.57 0.56 0.55 0.53 0.53 0.54 0.55 0.56 0.58 0.56 0.58 0.60 0.65 0.62 0.62 0.61 0.58 0.55 0.53 0.52 0.51 0.51 0.51 0.51 0.50 0.49 0.48 0.48 0.47 0.48 0.47 0.45 0.42 0.39 0.34
0.62 0.59 0.58 0.58 0.60 0.60 0.61 0.63 0.62 0.62 0.62 0.61 0.60 0.60 0.63 0.63 0.61 0.61 0.62 0.62 0.61 0.59 0.61 0.62 0.63 0.65 0.66 0.66 0.64 0.64 0.61 0.55 0.44 0.35 0.34 0.35 0.34 0.35 0.38 0.56 0.65 0.66 0.67 0.68 0.72 0.68 0.67 0.63 0.60 0.58 0.56 0.54 0.53 0.53 0.53 0.53 0.53 0.53 0.54 0.55 0.57 0.57 0.58 0.56 0.56 0.55 0.53 0.51 0.49 0.49 0.49 0.48 0.45 0.44 0.44 0.44 0.45 0.46 0.47 0.48 0.47 0.47 0.45 0.41 0.36
0.55 0.55 0.54 0.53 0.52 0.51 0.51 0.51 0.51 0.53 0.55 0.55 0.53 0.52 0.53 0.53 0.54 0.57 0.56 0.57 0.57 0.57 0.56 0.57 0.57 0.57 0.58 0.59 0.60 0.60 0.59 0.55 0.46 0.36 0.36 0.36 0.36 0.40 0.45 0.53 0.59 0.59 0.59 0.61 0.65 0.64 0.67 0.65 0.62 0.55 0.51 0.51 0.51 0.52 0.53 0.52 0.52 0.52 0.52 0.52 0.52 0.52 0.52 0.52 0.52 0.51 0.50 0.49 0.47 0.44 0.43 0.42 0.39 0.40 0.42 0.42 0.43 0.44 0.45 0.45 0.44 0.43 0.41 0.40 0.39
0.53 0.51 0.49 0.49 0.49 0.49 0.49 0.49 0.49 0.50 0.51 0.51 0.51 0.52 0.51 0.51 0.51 0.52 0.54 0.56 0.56 0.55 0.55 0.55 0.54 0.53 0.54 0.55 0.58 0.58 0.59 0.56 0.56 0.45 0.40 0.41 0.43 0.44 0.44 0.48 0.53 0.56 0.55 0.59 0.58 0.60 0.61 0.61 0.59 0.51 0.49 0.50 0.50 0.50 0.51 0.51 0.51 0.50 0.51 0.50 0.49 0.48 0.46 0.46 0.45 0.45 0.45 0.44 0.41 0.38 0.38 0.41 0.40 0.40 0.41 0.42 0.42 0.41 0.40 0.38 0.37 0.36 0.34 0.34 0.36
0.48 0.48 0.48 0.48 0.48 0.48 0.47 0.47 0.47 0.47 0.46 0.46 0.46 0.47 0.46 0.48 0.48 0.49 0.49 0.50 0.53 0.55 0.56 0.56 0.55 0.54 0.54 0.54 0.55 0.57 0.62 0.65 0.63 0.60 0.50 0.49 0.50 0.50 0.50 0.52 0.51 0.49 0.49 0.56 0.57 0.58 0.59 0.61 0.55 0.48 0.50 0.50 0.50 0.50 0.51 0.51 0.51 0.50 0.49 0.49 0.49 0.48 0.47 0.46 0.44 0.42 0.40 0.40 0.39 0.39 0.39 0.40 0.41 0.41 0.41 0.40 0.39 0.38 0.36 0.36 0.37 0.36 0.36 0.37 0.37
0.45 0.46 0.47 0.47 0.47 0.46 0.43 0.42 0.42 0.42 0.44 0.46 0.47 0.48 0.46 0.46 0.45 0.45 0.47 0.48 0.50 0.51 0.53 0.54 0.54 0.54 0.56 0.59 0.61 0.62 0.61 0.64 0.68 0.70 0.66 0.61 0.60 0.59 0.57 0.57 0.55 0.50 0.53 0.57 0.59 0.60 0.61 0.55 0.51 0.52 0.53 0.53 0.53 0.51 0.51 0.51 0.50 0.50 0.49 0.47 0.46 0.46 0.47 0.43 0.41 0.40 0.39 0.38 0.37 0.37 0.38 0.40 0.40 0.40 0.39 0.38 0.35 0.34 0.35 0.34 0.34 0.34 0.35 0.35 0.34
0.43 0.43 0.44 0.45 0.45 0.45 0.44 0.43 0.43 0.44 0.45 0.44 0.44 0.45 0.45 0.44 0.42 0.42 0.42 0.42 0.43 0.46 0.49 0.53 0.55 0.57 0.57 0.58 0.60 0.64 0.66 0.67 0.66 0.64 0.69 0.67 0.64 0.62 0.59 0.59 0.57 0.55 0.58 0.62 0.63 0.61 0.58 0.52 0.52 0.53 0.53 0.54 0.54 0.53 0.51 0.50 0.49 0.48 0.45 0.44 0.45 0.47 0.44 0.43 0.41 0.38 0.36 0.35 0.38 0.40 0.40 0.40 0.40 0.38 0.36 0.35 0.34 0.34 0.35 0.34 0.34 0.34 0.34 0.35 0.33
0.38 0.38 0.39 0.40 0.40 0.40 0.40 0.40 0.40 0.40 0.41 0.39 0.37 0.35 0.35 0.36 0.37 0.40 0.43 0.44 0.44 0.45 0.48 0.50 0.51 0.53 0.55 0.59 0.61 0.60 0.61 0.62 0.62 0.61 0.66 0.70 0.66 0.64 0.64 0.62 0.58 0.58 0.59 0.63 0.64 0.63 0.58 0.53 0.53 0.54 0.53 0.52 0.51 0.49 0.48 0.47 0.45 0.44 0.44 0.45 0.45 0.43 0.42 0.41 0.41 0.39 0.41 0.42 0.40 0.39 0.37 0.36 0.34 0.34 0.34 0.33 0.33 0.34 0.36 0.35 0.34 0.33 0.34 0.34 0.32
0.34 0.33 0.33 0.33 0.33 0.34 0.34 0.35 0.36 0.37 0.37 0.34 0.34 0.37 0.37 0.37 0.37 0.35 0.37 0.41 0.41 0.41 0.43 0.48 0.52 0.55 0.59 0.62 0.60 0.59 0.61 0.62 0.64 0.68 0.69 0.69 0.68 0.65 0.65 0.63 0.63 0.62 0.62 0.63 0.62 0.59 0.54 0.52 0.51 0.51 0.50 0.49 0.48 0.48 0.47 0.44 0.42 0.43 0.43 0.42 0.41 0.42 0.42 0.42 0.39 0.40 0.39 0.38 0.35 0.34 0.31 0.33 0.33 0.33 0.33 0.32 0.33 0.33 0.35 0.34 0.34 0.33 0.33 0.34 0.32
0.35 0.34 0.35 0.34 0.34 0.35 0.34 0.34 0.33 0.33 0.33 0.33 0.33 0.34 0.36 0.37 0.36 0.33 0.31 0.34 0.35 0.35 0.38 0.40 0.44 0.48 0.51 0.56 0.60 0.58 0.58 0.63 0.68 0.66 0.68 0.75 0.73 0.67 0.71 0.69 0.68 0.63 0.61 0.60 0.58 0.53 0.51 0.50 0.50 0.49 0.48 0.47 0.46 0.46 0.44 0.43 0.42 0.41 0.42 0.42 0.39 0.40 0.40 0.38 0.37 0.37 0.36 0.33 0.31 0.32 0.33 0.32 0.31 0.31 0.31 0.31 0.32 0.33 0.34 0.33 0.33 0.34 0.33 0.33 0.32
0.34 0.34 0.34 0.34 0.35 0.35 0.35 0.34 0.34 0.33 0.33 0.32 0.31 0.30 0.30 0.32 0.35 0.35 0.36 0.37 0.36 0.33 0.33 0.36 0.39 0.41 0.43 0.45 0.51 0.54 0.56 0.56 0.60 0.63 0.62 0.68 0.76 0.76 0.71 0.65 0.64 0.63 0.62 0.58 0.55 0.54 0.52 0.49 0.48 0.48 0.48 0.48 0.47 0.45 0.46 0.43 0.41 0.41 0.41 0.40 0.41 0.40 0.38 0.35 0.37 0.36 0.34 0.32 0.33 0.33 0.32 0.31 0.30 0.30 0.30 0.31 0.31 0.32 0.33 0.34 0.34 0.35 0.34 0.34 0.33
0.36 0.35 0.36 0.35 0.36 0.36 0.36 0.36 0.35 0.34 0.34 0.35 0.35 0.34 0.33 0.32 0.30 0.34 0.37 0.38 0.37 0.37 0.37 0.36 0.37 0.39 0.40 0.41 0.42 0.45 0.49 0.52 0.55 0.59 0.67 0.72 0.71 0.70 0.68 0.64 0.64 0.61 0.59 0.58 0.53 0.51 0.51 0.50 0.49 0.48 0.48 0.47 0.47 0.47 0.45 0.43 0.41 0.40 0.40 0.39 0.38 0.38 0.36 0.35 0.36 0.35 0.33 0.33 0.30 0.29 0.29 0.30 0.30 0.31 0.31 0.31 0.31 0.31 0.32 0.33 0.33 0.33 0.34 0.35 0.36
0.39 0.38 0.38 0.38 0.38 0.38 0.37 0.36 0.36 0.36 0.36 0.36 0.35 0.36 0.36 0.35 0.33 0.34 0.37 0.41 0.42 0.41 0.40 0.40 0.39 0.39 0.39 0.39 0.39 0.41 0.43 0.46 0.49 0.54 0.62 0.69 0.70 0.68 0.66 0.64 0.64 0.64 0.64 0.59 0.54 0.51 0.50 0.48 0.47 0.48 0.48 0.47 0.47 0.44 0.43 0.42 0.41 0.41 0.40 0.38 0.36 0.35 0.35 0.36 0.35 0.34 0.33 0.31 0.30 0.29 0.30 0.30 0.31 0.31 0.31 0.31 0.31 0.31 0.32 0.32 0.33 0.34 0.35 0.35 0.37
0.42 0.41 0.40 0.40 0.40 0.39 0.39 0.39 0.39 0.38 0.38 0.38 0.37 0.36 0.36 0.37 0.37 0.37 0.36 0.35 0.38 0.41 0.43 0.43 0.43 0.42 0.40 0.40 0.39 0.40 0.41 0.41 0.42 0.44 0.47 0.49 0.53 0.57 0.61 0.61 0.62 0.62 0.59 0.56 0.54 0.51 0.49 0.49 0.48 0.49 0.48 0.47 0.44 0.43 0.42 0.42 0.42 0.41 0.40 0.38 0.36 0.35 0.34 0.33 0.32 0.32 0.31 0.30 0.29 0.30 0.31 0.31 0.30 0.29 0.30 0.31 0.32 0.32 0.32 0.33 0.34 0.34 0.35 0.37 0.38
0.44 0.43 0.43 0.44 0.43 0.43 0.44 0.44 0.44 0.43 0.43 0.43 0.42 0.42 0.41 0.41 0.42 0.41 0.41 0.39 0.37 0.36 0.38 0.41 0.45 0.46 0.45 0.44 0.43 0.42 0.40 0.39 0.37 0.36 0.37 0.40 0.44 0.50 0.57 0.57 0.56 0.56 0.56 0.57 0.55 0.51 0.48 0.48 0.49 0.49 0.46 0.44 0.43 0.43 0.43 0.42 0.41 0.40 0.38 0.36 0.35 0.33 0.32 0.31 0.31 0.31 0.30 0.28 0.29 0.30 0.30 0.29 0.29 0.30 0.30 0.30 0.30 0.31 0.32 0.33 0.34 0.36 0.36 0.38 0.40
0.45 0.44 0.45 0.45 0.45 0.44 0.44 0.44 0.44 0.42 0.41 0.40 0.41 0.40 0.41 0.40 0.39 0.40 0.40 0.41 0.41 0.41 0.43 0.45 0.47 0.47 0.49 0.49 0.48 0.47 0.46 0.43 0.41 0.41 0.42 0.43 0.44 0.46 0.43 0.42 0.45 0.49 0.55 0.58 0.58 0.57 0.57 0.54 0.49 0.48 0.47 0.46 0.45 0.44 0.43 0.43 0.41 0.39 0.39 0.37 0.35 0.32 0.31 0.31 0.31 0.30 0.29 0.29 0.30 0.30 0.28 0.27 0.29 0.29 0.30 0.31 0.31 0.32 0.33 0.34 0.35 0.37 0.38 0.40 0.43
0.46 0.46 0.46 0.45 0.43 0.42 0.42 0.43 0.42 0.42 0.41 0.41 0.41 0.41 0.42 0.43 0.43 0.43 0.43 0.42 0.42 0.42 0.42 0.45 0.48 0.49 0.49 0.48 0.48 0.47 0.47 0.46 0.43 0.42 0.42 0.43 0.43 0.42 0.41 0.43 0.48 0.54 0.56 0.57 0.56 0.56 0.55 0.53 0.52 0.50 0.49 0.48 0.47 0.46 0.46 0.44 0.42 0.41 0.40 0.37 0.35 0.32 0.31 0.30 0.30 0.30 0.30 0.29 0.29 0.29 0.28 0.27 0.28 0.29 0.29 0.29 0.31 0.32 0.34 0.35 0.36 0.38 0.40 0.43 0.46
0.46 0.46 0.44 0.42 0.41 0.41 0.41 0.42 0.42 0.42 0.41 0.41 0.42 0.42 0.42 0.43 0.44 0.45 0.45 0.45 0.45 0.44 0.43 0.43 0.44 0.45 0.46 0.48 0.50 0.47 0.46 0.45 0.44 0.42 0.42 0.42 0.40 0.39 0.40 0.40 0.42 0.45 0.52 0.56 0.57 0.56 0.54 0.53 0.53 0.53 0.50 0.48 0.46 0.45 0.45 0.44 0.43 0.42 0.40 0.37 0.35 0.32 0.31 0.29 0.29 0.30 0.30 0.30 0.29 0.28 0.27 0.27 0.27 0.28 0.30 0.30 0.31 0.32 0.34 0.36 0.37 0.38 0.41 0.45 0.48
0.47 0.47 0.45 0.43 0.41 0.41 0.41 0.41 0.41 0.40 0.40 0.40 0.41 0.41 0.41 0.42 0.44 0.45 0.46 0.46 0.46 0.46 0.46 0.45 0.44 0.44 0.47 0.50 0.50 0.50 0.48 0.43 0.40 0.38 0.39 0.40 0.40 0.40 0.41 0.42 0.41 0.40 0.47 0.52 0.54 0.55 0.55 0.54 0.53 0.51 0.49 0.46 0.44 0.43 0.43 0.43 0.42 0.40 0.38 0.36 0.34 0.31 0.29 0.29 0.30 0.30 0.30 0.29 0.27 0.27 0.26 0.26 0.28 0.29 0.31 0.31 0.32 0.34 0.34 0.36 0.37 0.39 0.42 0.45 0.48
0.47 0.46 0.46 0.44 0.42 0.42 0.42 0.41 0.40 0.40 0.39 0.39 0.40 0.40 0.41 0.42 0.44 0.45 0.46 0.46 0.46 0.47 0.47 0.46 0.45 0.45 0.49 0.52 0.50 0.49 0.46 0.44 0.42 0.40 0.39 0.39 0.39 0.40 0.41 0.43 0.43 0.44 0.47 0.51 0.54 0.53 0.53 0.51 0.50 0.48 0.47 0.45 0.44 0.43 0.43 0.42 0.41 0.39 0.37 0.36 0.32 0.29 0.28 0.29 0.30 0.30 0.29 0.28 0.27 0.27 0.26 0.26 0.27 0.29 0.31 0.32 0.33 0.34 0.35 0.36 0.38 0.40 0.43 0.46 0.48
0.46 0.46 0.45 0.45 0.44 0.44 0.43 0.42 0.41 0.40 0.40 0.39 0.40 0.40 0.41 0.42 0.45 0.47 0.47 0.47 0.46 0.47 0.47 0.46 0.46 0.47 0.49 0.52 0.52 0.51 0.48 0.48 0.44 0.42 0.41 0.41 0.39 0.38 0.39 0.43 0.44 0.46 0.48 0.50 0.53 0.52 0.51 0.49 0.48 0.47 0.45 0.43 0.43 0.43 0.43 0.41 0.39 0.37 0.35 0.34 0.31 0.30 0.30 0.31 0.31 0.30 0.29 0.28 0.28 0.26 0.26 0.26 0.28 0.29 0.30 0.32 0.34 0.34 0.36 0.38 0.39 0.41 0.43 0.47 0.49
0.46 0.45 0.45 0.46 0.46 0.45 0.43 0.42 0.42 0.42 0.42 0.40 0.40 0.40 0.41 0.43 0.45 0.47 0.47 0.47 0.46 0.47 0.46 0.46 0.46 0.48 0.50 0.51 0.51 0.53 0.52 0.48 0.44 0.43 0.42 0.42 0.41 0.41 0.41 0.41 0.43 0.45 0.48 0.49 0.52 0.50 0.50 0.48 0.47 0.45 0.43 0.43 0.42 0.41 0.40 0.39 0.37 0.35 0.34 0.32 0.30 0.30 0.30 0.30 0.30 0.29 0.28 0.27 0.27 0.26 0.26 0.27 0.29 0.30 0.32 0.32 0.33 0.34 0.36 0.37 0.39 0.40 0.42 0.46 0.49
0.46 0.45 0.45 0.45 0.45 0.45 0.44 0.44 0.44 0.43 0.42 0.41 0.40 0.41 0.42 0.44 0.45 0.47 0.48 0.47 0.47 0.46 0.45 0.45 0.48 0.50 0.50 0.51 0.51 0.53 0.53 0.50 0.44 0.42 0.43 0.44 0.43 0.43 0.43 0.45 0.47 0.49 0.50 0.50 0.48 0.48 0.47 0.46 0.44 0.42 0.41 0.40 0.40 0.39 0.38 0.37 0.36 0.34 0.33 0.32 0.31 0.31 0.30 0.29 0.27 0.26 0.26 0.26 0.26 0.27 0.27 0.28 0.29 0.30 0.31 0.32 0.33 0.35 0.36 0.37 0.38 0.40 0.41 0.44 0.47
0.46 0.45 0.45 0.45 0.46 0.46 0.46 0.46 0.45 0.43 0.43 0.42 0.42 0.42 0.42 0.43 0.44 0.46 0.47 0.48 0.48 0.49 0.49 0.49 0.49 0.49 0.48 0.49 0.52 0.51 0.48 0.44 0.42 0.41 0.41 0.42 0.44 0.45 0.46 0.47 0.47 0.46 0.46 0.45 0.45 0.46 0.45 0.43 0.42 0.42 0.41 0.40 0.41 0.40 0.38 0.37 0.36 0.35 0.34 0.33 0.32 0.30 0.27 0.26 0.24 0.24 0.24 0.25 0.26 0.27 0.27 0.28 0.29 0.30 0.30 0.32 0.33 0.34 0.35 0.36 0.38 0.39 0.40 0.42 0.45
0.45 0.45 0.44 0.44 0.44 0.44 0.45 0.45 0.45 0.44 0.44 0.43 0.42 0.42 0.43 0.43 0.42 0.44 0.45 0.47 0.48 0.49 0.49 0.49 0.49 0.48 0.47 0.48 0.48 0.45 0.43 0.43 0.43 0.43 0.42 0.43 0.44 0.44 0.45 0.44 0.43 0.42 0.42 0.42 0.43 0.43 0.43 0.43 0.43 0.42 0.42 0.41 0.40 0.38 0.37 0.37 0.37 0.36 0.35 0.33 0.30 0.28 0.26 0.24 0.23 0.23 0.24 0.25 0.26 0.27 0.28 0.28 0.28 0.29 0.30 0.32 0.33 0.34 0.35 0.36 0.37 0.37 0.38 0.39 0.42
0.42 0.43 0.43 0.43 0.42 0.42 0.43 0.43 0.45 0.45 0.45 0.44 0.43 0.42 0.42 0.43 0.43 0.43 0.44 0.44 0.45 0.47 0.48 0.49 0.49 0.48 0.47 0.45 0.44 0.42 0.42 0.44 0.44 0.43 0.43 0.43 0.43 0.43 0.44 0.44 0.42 0.42 0.42 0.42 0.43 0.43 0.43 0.44 0.44 0.42 0.40 0.38 0.37 0.37 0.37 0.37 0.37 0.37 0.35 0.33 0.29 0.27 0.25 0.24 0.23 0.23 0.23 0.24 0.26 0.27 0.28 0.28 0.28 0.29 0.30 0.32 0.33 0.35 0.35 0.36 0.36 0.36 0.36 0.38 0.40
0.39 0.39 0.39 0.40 0.39 0.39 0.39 0.40 0.41 0.42 0.44 0.45 0.45 0.45 0.44 0.43 0.42 0.42 0.42 0.43 0.43 0.42 0.43 0.45 0.46 0.45 0.45 0.44 0.44 0.43 0.43 0.43 0.44 0.44 0.44 0.44 0.45 0.47 0.48 0.48 0.46 0.46 0.47 0.47 0.46 0.45 0.44 0.44 0.42 0.39 0.37 0.38 0.39 0.39 0.39 0.39 0.38 0.36 0.34 0.31 0.28 0.27 0.25 0.25 0.25 0.24 0.24 0.25 0.26 0.27 0.28 0.28 0.28 0.29 0.29 0.31 0.33 0.34 0.35 0.35 0.34 0.34 0.36 0.37 0.39
0.35 0.36 0.36 0.37 0.37 0.36 0.36 0.36 0.36 0.38 0.40 0.43 0.45 0.46 0.46 0.46 0.45 0.43 0.41 0.41 0.42 0.42 0.42 0.43 0.44 0.44 0.43 0.43 0.44 0.45 0.45 0.45 0.46 0.49 0.50 0.49 0.49 0.49 0.49 0.48 0.47 0.47 0.47 0.47 0.47 0.47 0.46 0.44 0.42 0.39 0.40 0.40 0.40 0.39 0.39 0.38 0.36 0.34 0.31 0.29 0.28 0.27 0.27 0.26 0.26 0.26 0.25 0.25 0.26 0.27 0.28 0.28 0.29 0.29 0.30 0.30 0.32 0.33 0.33 0.33 0.34 0.35 0.35 0.36 0.38
0.34 0.33 0.35 0.35 0.35 0.35 0.35 0.35 0.35 0.34 0.35 0.37 0.40 0.43 0.45 0.46 0.46 0.46 0.46 0.45 0.43 0.42 0.42 0.41 0.42 0.45 0.47 0.46 0.46 0.46 0.48 0.48 0.48 0.47 0.47 0.48 0.48 0.48 0.47 0.46 0.46 0.47 0.47 0.46 0.46 0.45 0.43 0.42 0.41 0.41 0.41 0.40 0.39 0.37 0.36 0.35 0.33 0.31 0.29 0.29 0.29 0.29 0.28 0.28 0.28 0.28 0.26 0.25 0.26 0.27 0.28 0.28 0.28 0.29 0.30 0.31 0.32 0.33 0.33 0.34 0.34 0.34 0.35 0.36 0.37
0.31 0.32 0.33 0.34 0.34 0.34 0.35 0.35 0.35 0.35 0.34 0.34 0.33 0.35 0.39 0.43 0.45 0.46 0.46 0.45 0.45 0.44 0.42 0.42 0.41 0.41 0.42 0.42 0.43 0.44 0.46 0.46 0.48 0.48 0.49 0.49 0.49 0.49 0.49 0.48 0.48 0.47 0.47 0.45 0.43 0.42 0.42 0.42 0.41 0.41 0.40 0.39 0.39 0.38 0.36 0.33 0.30 0.29 0.29 0.30 0.30 0.31 0.31 0.30 0.30 0.30 0.29 0.28 0.27 0.28 0.28 0.28 0.28 0.28 0.30 0.31 0.32 0.32 0.32 0.33 0.34 0.34 0.35 0.35 0.35
0.28 0.31 0.30 0.31 0.32 0.32 0.32 0.32 0.31 0.32 0.33 0.33 0.33 0.33 0.33 0.34 0.37 0.41 0.44 0.45 0.45 0.46 0.46 0.46 0.46 0.45 0.45 0.45 0.46 0.46 0.47 0.48 0.49 0.49 0.49 0.48 0.48 0.47 0.47 0.46 0.46 0.46 0.46 0.45 0.43 0.42 0.41 0.42 0.41 0.40 0.39 0.37 0.36 0.35 0.32 0.28 0.28 0.30 0.31 0.31 0.32 0.32 0.32 0.32 0.31 0.32 0.32 0.33 0.32 0.31 0.30 0.28 0.27 0.28 0.29 0.30 0.31 0.31 0.32 0.32 0.33 0.33 0.34 0.34 0.34
Wind_Speed
16 16 15 15 15 15 15 14 13 14 15 15 15 14 14 14 13 12 11 10 10 10 9 9 8 8 7 7 6 6 5 5 5 5 5 4 4 4 4 4 5 5 5 5 4 4 4 4 4 4 4 4 5 5 5 5 5 4 4 5 5 5 5 5 5 5 6 6 6 7 7 7 7 7 8 9 9 9 9 9 9 9 9 10 10
16 15 15 15 15 15 14 13 13 14 14 14 15 15 14 14 13 13 12 11 11 11 10 9 9 9 9 9 8 8 7 7 7 7 6 6 6 6 6 6 6 6 6 6 6 6 6 6 7 7 6 6 6 6 7 6 5 5 5 5 5 5 5 5 5 5 6 7 7 7 7 8 8 8 9 9 10 10 10 10 11 10 10 11 12
14 15 14 14 14 13 13 13 13 14 14 14 14 15 14 13 13 13 13 12 12 11 10 10 10 10 10 10 10 9 9 9 9 9 8 8 8 8 7 7 8 8 8 8 8 9 9 9 9 9 9 8 8 8 8 7 6 6 6 6 6 6 6 6 7 7 7 8 8 8 8 9 9 9 10 10 10 11 10 10 11 11 11 12 13
13 13 14 14 13 13 13 13 14 14 14 14 15 15 15 14 14 14 13 13 13 12 12 12 11 11 10 10 10 10 10 10 10 10 10 10 10 9 9 9 10 10 10 10 10 11 11 11 11 11 11 10 10 10 9 9 8 8 8 8 8 8 8 8 8 8 9 9 9 9 10 11 10 10 11 11 11 12 11 10 11 11 12 13 15
13 13 13 14 14 14 14 14 14 14 14 15 15 15 15 15 14 14 14 14 14 13 13 12 12 12 11 11 11 11 11 12 12 12 12 12 12 11 11 12 12 12 12 12 12 12 12 12 12 12 12 12 11 11 11 10 10 10 10 10 9 9 9 10 10 10 10 10 10 10 11 12 12 12 12 11 12 13 13 13 13 13 14 16 17
12 12 13 14 14 14 15 15 15 15 15 15 15 15 15 15 14 14 14 14 14 14 14 13 13 12 12 12 12 12 12 13 13 13 13 13 13 13 14 14 14 14 14 14 14 14 14 14 14 14 14 13 13 12 12 12 11 11 11 11 10 10 10 11 11 12 11 11 11 12 12 13 13 13 13 13 15 16 16 16 16 17 18 20 21
11 11 12 13 14 14 15 16 16 16 17 17 16 16 16 15 15 15 15 14 14 14 14 14 13 13 13 13 13 13 13 14 14 14 14 14 14 14 15 15 15 16 16 16 15 15 16 15 15 15 15 14 14 14 14 13 13 13 13 12 12 12 12 12 12 12 12 13 13 13 14 15 15 16 17 18 18 18 18 18 19 20 22 23 24
11 11 11 12 13 13 14 15 14 14 15 15 14 14 15 15 15 15 15 15 15 15 15 15 14 14 14 13 14 14 14 14 15 15 14 14 15 15 15 16 17 17 17 17 16 16 16 17 16 16 16 15 15 15 14 14 14 14 14 14 14 14 14 14 13 13 13 15 15 15 16 17 18 19 20 20 19 19 20 21 22 24 25 26 27
11 11 11 12 13 12 12 13 13 13 13 12 12 12 12 12 12 13 14 15 15 15 15 15 15 15 15 15 15 16 16 16 15 15 14 15 16 16 16 17 17 17 17 18 18 18 18 17 17 16 16 16 15 15 15 14 14 14 14 14 15 15 15 15 14 15 16 17 17 18 18 19 20 20 20 20 21 21 22 24 25 26 27 29 29
10 10 11 12 12 12 12 13 13 13 13 13 13 13 13 13 13 13 13 14 14 14 15 15 15 16 16 16 17 17 17 16 16 17 17 17 18 18 18 19 18 18 18 19 19 19 20 19 18 17 17 17 16 15 16 16 15 15 15 15 15 16 16 16 16 17 18 19 19 20 20 21 22 22 22 22 22 23 24 25 26 27 29 30 30
10 11 12 12 12 12 12 13 13 13 13 14 14 14 15 15 15 14 14 14 14 15 16 16 17 17 17 18 18 18 18 17 17 18 20 20 20 20 19 20 20 20 20 21 21 21 21 21 20 19 19 19 18 17 17 17 17 16 16 16 16 16 17 18 18 19 20 20 21 22 22 23 23 23 24 24 24 24 25 26 27 29 30 30 30
11 11 11 12 12 12 12 12 13 13 13 14 14 15 15 16 17 17 17 17 17 17 18 18 18 19 19 20 20 19 20 20 20 21 22 21 21 21 21 21 21 22 22 22 22 22 22 22 21 20 20 20 19 19 18 18 18 17 17 17 17 18 19 20 20 21 22 22 23 23 24 24 24 25 25 26 26 27 28 29 30 31 31 32 32
12 11 11 12 12 12 12 12 12 12 13 14 14 15 16 17 18 18 19 19 20 20 20 20 20 20 21 22 22 21 21 22 23 23 22 22 21 22 22 23 23 23 23 23 23 22 21 21 20 20 19 19 19 19 18 18 17 18 18 19 20 21 21 22 22 23 24 24 25 25 25 25 25 26 26 27 28 29 30 31 32 32 33 34 34
12 12 12 12 12 13 13 13 14 14 15 15 15 16 17 17 18 18 18 19 20 21 21 22 22 22 22 23 23 22 23 23 24 24 23 23 23 24 25 25 24 24 23 22 21 21 20 19 19 19 19 19 19 19 19 19 19 19 20 22 23 23 23 24 25 26 26 27 27 27 27 27 27 28 28 29 30 31 31 32 33 34 35 36 36
13 13 13 13 13 14 14 15 16 16 16 16 17 17 18 18 19 18 19 19 20 21 22 22 23 23 24 24 24 25 25 25 25 25 25 25 25 25 25 24 24 23 23 21 20 20 20 20 20 20 20 20 20 20 20 21 21 22 23 24 24 24 25 26 26 27 27 27 28 28 28 28 28 29 30 30 31 32 32 33 34 35 36 37 37
14 14 15 15 15 16 16 16 17 17 18 18 19 19 20 20 20 20 20 20 21 22 22 23 24 24 25 25 26 26 26 26 26 26 26 26 25 24 24 23 23 23 23 22 21 21 21 21 21 21 21 21 22 21 22 22 23 24 24 25 25 25 26 26 26 27 27 27 27 27 28 28 29 30 30 31 32 33 34 35 35 36 37 37 37
15 15 16 16 17 17 18 18 18 18 18 19 20 21 21 21 21 21 22 22 23 23 24 24 24 24 25 25 25 26 26 26 26 26 26 25 25 24 24 23 24 24 23 22 22 22 22 22 22 22 22 22 23 23 23 24 25 25 26 26 26 26 26 26 26 26 27 27 27 28 28 29 30 31 31 32 33 34 34 35 35 36 37 37 37
16 16 17 17 18 18 19 19 19 19 20 20 21 21 21 22 22 23 23 24 24 24 25 25 25 25 26 26 26 26 26 26 26 26 25 25 25 25 24 24 24 24 23 23 23 22 23 22 22 23 23 24 24 24 25 25 26 26 27 27 27 27 26 26 26 27 27 27 28 29 29 30 31 32 33 34 34 34 35 35 35 35 36 37 37
17 17 18 19 19 19 20 20 21 21 21 22 22 22 22 23 24 24 25 25 25 26 26 27 27 28 28 28 27 27 26 26 26 26 26 26 26 26 25 25 25 25 24 24 24 24 24 24 24 24 25 25 25 25 26 26 26 27 27 27 27 27 27 27 27 27 27 28 28 29 30 31 32 33 34 34 34 34 34 35 35 35 36 36 36
20 20 20 21 22 22 22 23 23 23 23 24 24 24 24 25 26 27 27 28 28 29 29 29 29 29 30 30 29 29 27 27 27 28 28 28 28 28 27 27 27 26 25 25 25 25 26 26 26 26 26 26 26 26 26 26 26 27 27 27 27 27 28 28 27 28 28 29 30 31 32 33 33 33 33 34 34 35 35 35 35 35 35 35 35
23 23 23 24 24 24 24 25 25 26 26 27 27 27 27 28 29 30 31 31 32 32 31 31 31 31 31 31 31 31 30 30 30 30 30 30 29 29 29 29 28 27 27 27 27 27 27 27 27 27 27 27 27 27 26 26 26 27 27 27 28 28 28 29 29 29 30 30 31 32 33 32 32 33 33 34 34 34 34 35 35 35 35 35 35
25 26 25 25 26 26 26 27 27 28 28 29 30 31 31 32 32 33 33 34 34 34 33 33 33 32 32 32 32 32 32 32 31 31 31 30 30 30 30 30 29 29 29 28 28 28 27 27 27 27 27 27 27 27 27 27 27 27 28 28 28 29 30 30 31 31 31 32 32 32 32 32 33 33 33 33 33 33 33 34 35 35 35 36 36
28 28 28 29 30 30 31 31 31 32 32 32 33 34 35 35 35 35 35 35 35 35 35 35 34 34 33 33 34 34 34 33 32 32 31 31 31 31 30 30 30 29 29 29 29 29 29 28 28 28 28 28 28 28 28 28 28 29 29 29 29 30 31 32 32 32 32 32 33 33 33 33 33 33 33 33 33 33 34 36 36 37 37 37 37
31 31 32 32 33 33 33 33 34 34 35 35 35 36 36 36 37 37 37 37 37 37 37 37 36 36 35 35 35 35 35 34 33 32 31 31 31 31 31 31 30 30 30 30 31 31 30 31 30 30 29 29 29 29 30 30 30 30 30 31 31 31 32 32 32 32 32 32 33 33 33 33 32 32 33 34 35 36 37 37 37 37 37 37 37
34 34 35 35 35 36 36 36 36 37 37 37 38 38 38 38 39 39 39 39 39 39 39 38 38 38 37 37 36 35 35 35 34 32 32 32 31 31 31 31 31 31 32 32 32 32 32 32 32 31 31 31 31 31 31 32 32 32 32 32 32 32 31 31 31 31 32 32 33 33 33 32 33 33 34 35 36 36 36 36 36 36 37 37 37
36 36 37 37 37 38 39 39 39 39 40 40 40 40 41 40 41 40 40 40 41 41 40 40 40 39 39 38 37 36 35 35 34 33 33 33 31 30 30 31 30 31 31 32 32 31 32 32 32 32 31 32 31 31 31 31 32 32 32 32 32 31 31 31 31 32 32 33 33 33 33 33 33 34 35 35 35 35 35 35 36 36 36 37 37
38 38 38 39 39 40 40 41 41 41 42 42 42 42 42 42 42 42 42 41 41 42 42 42 42 41 41 40 39 38 38 37 36 35 35 34 34 33 33 32 31 30 30 31 31 31 31 31 31 30 30 30 30 30 30 30 30 31 31 30 30 30 30 31 31 32 33 32 32 32 33 33 34 35 35 35 35 35 35 35 35 36 36 36 36
39 39 40 40 40 41 41 42 42 42 42 42 43 43 43 42 42 42 42 41 41 41 41 41 41 42 42 41 41 40 39 39 38 37 37 36 36 34 32 31 30 30 30 29 29 29 29 29 29 29 29 29 28 29 29 29 29 29 29 29 29 29 30 30 30 31 31 31 32 33 34 34 34 34 34 35 35 34 34 34 35 35 35 35 35
38 39 39 39 40 40 41 41 42 42 42 43 43 43 43 43 43 43 43 42 42 42 42 41 41 41 41 41 41 41 40 40 39 38 38 38 37 35 33 32 31 31 30 30 30 29 28 27 27 27 27 27 27 28 28 28 28 28 28 28 29 30 30 30 30 30 30 31 32 33 33 33 33 33 34 34 34 34 34 34 34 34 33 33 33
38 38 38 39 39 39 40 40 40 41 41 42 42 43 43 44 44 44 44 45 45 44 44 44 44 43 43 42 42 41 41 41 41 40 39 38 37 37 35 33 31 29 29 29 30 30 29 28 27 28 27 27 28 28 27 27 27 27 27 28 29 29 30 30 30 30 30 31 32 32 32 32 32 33 33 33 33 33 33 32 32 32 32 32 32
37 37 38 38 39 39 39 39 40 40 40 40 41 42 43 43 44 44 44 45 45 45 45 45 45 45 45 45 44 43 42 41 41 40 40 40 39 38 37 36 34 32 30 29 29 28 28 28 28 28 28 28 28 28 28 27 27 27 27 28 28 28 28 29 29 30 31 31 31 31 31 31 31 31 31 31 31 31 31 30 30 30 30 30 30
35 36 36 36 37 38 38 38 38 38 39 39 39 40 40 41 42 42 42 42 42 42 42 43 44 44 44 44 44 43 42 41 40 39 39 39 39 39 39 39 39 37 35 33 31 31 31 30 29 29 29 29 29 28 28 28 27 27 28 28 28 27 27 28 29 30 30 30 30 30 29 29 29 29 28 28 28 28 28 28 28 28 28 28 28
31 32 32 32 32 33 33 34 34 35 35 36 36 37 38 38 38 39 40 40 40 40 39 40 40 41 42 42 42 41 41 40 39 39 39 39 40 40 40 40 40 38 36 34 34 34 34 33 32 32 31 31 30 29 28 28 27 27 27 27 27 27 27 27 28 28 27 27 27 27 26 26 26 26 25 25 25 25 25 25 25 26 26 26 26
26 26 27 27 27 28 28 29 29 30 30 31 32 33 35 35 36 37 37 38 38 39 38 38 38 39 39 39 39 39 39 39 39 39 40 40 40 40 39 39 38 38 37 36 36 35 34 33 33 32 31 30 29 28 28 27 26 26 26 26 25 25 25 25 25 24 24 24 24 23 23 23 22 22 22 22 22 22 23 23 23 24 24 25 25
23 23 23 23 23 24 24 24 25 25 26 27 28 30 31 33 34 35 35 35 36 36 35 35 35 35 36 36 36 36 36 36 37 37 38 38 38 38 38 37 37 36 35 34 33 32 31 30 30 29 28 28 27 27 26 25 24 24 23 23 22 22 22 22 21 21 21 21 20 20 20 20 19 19 20 20 20 20 21 21 22 22 23 23 23
19 19 19 19 19 20 20 20 21 21 22 23 25 27 29 31 32 33 34 34 33 33 32 31 31 31 31 32 32 32 32 33 33 34 35 35 35 36 37 36 34 33 32 31 29 28 27 27 26 25 25 25 24 24 23 22 22 21 20 19 19 19 20 19 19 19 19 18 18 18 18 18 17 17 17 17 18 18 19 20 21 22 22 22 21
16 16 15 15 16 16 16 16 17 18 19 21 23 25 27 28 29 30 30 31 30 30 29 28 27 27 27 27 27 28 29 29 30 30 31 31 32 32 33 33 32 30 28 27 25 25 25 24 23 23 23 23 22 21 21 20 19 18 18 18 18 18 18 18 18 17 17 17 16 16 16 16 15 15 15 15 16 17 18 19 20 20 20 20 19
12 12 12 12 12 13 13 14 15 17 18 20 22 24 25 26 26 26 26 27 27 27 26 25 25 24 23 23 24 24 24 25 26 26 27 27 28 28 29 31 32 31 28 26 24 23 22 22 22 22 22 21 20 19 19 18 18 18 18 18 18 18 17 17 16 16 15 15 15 15 14 14 14 14 14 14 15 16 17 18 19 19 19 18 17
9 9 9 10 11 11 12 13 14 16 18 19 21 22 24 24 23 22 22 22 23 23 23 23 22 21 21 20 20 20 21 21 22 24 24 24 25 25 26 27 29 31 31 28 25 23 22 21 21 21 21 20 19 19 18 17 18 18 18 18 17 17 16 16 15 14 14 14 13 13 12 12 13 13 13 14 14 15 17 18 18 18 18 17 16
8 8 8 9 10 11 12 12 14 15 17 18 20 21 22 22 20 18 18 17 17 18 19 19 19 19 19 18 18 18 17 18 19 20 21 22 23 24 24 25 26 28 29 29 27 26 24 23 21 21 20 19 19 18 17 17 18 18 17 17 17 16 15 15 14 14 13 13 12 11 11 11 12 12 12 13 14 15 16 17 17 18 18 17 16
8 8 8 9 10 10 11 12 13 14 16 17 18 19 21 20 18 15 13 12 11 11 13 14 15 16 16 16 16 16 15 15 15 17 18 20 21 22 23 24 25 25 26 27 26 26 24 23 22 21 20 19 19 18 17 18 18 18 17 16 16 16 15 14 13 13 12 11 11 10 10 11 11 11 12 12 13 14 15 16 17 17 17 17 16
8 8 8 8 9 10 10 11 12 14 15 16 17 18 19 19 16 13 10 9 7 7 8 10 11 12 12 12 13 13 13 13 13 14 15 17 17 18 19 21 22 23 24 24 25 25 24 23 23 22 21 20 19 18 17 17 18 17 16 16 16 15 14 13 13 12 11 10 10 10 10 10 10 10 11 12 12 13 15 16 17 17 18 17 16
7 7 8 9 9 9 10 11 12 13 14 15 15 17 18 18 16 13 10 7 5 4 5 6 7 7 8 9 10 11 10 9 9 10 11 13 14 14 16 18 20 21 21 22 22 23 23 22 22 21 20 19 18 17 17 17 17 17 17 16 15 14 13 13 12 11 10 10 10 9 9 9 10 10 10 11 12 13 14 16 17 17 17 17 15
6 7 8 8 9 10 10 11 11 12 12 13 14 15 16 17 16 15 11 8 6 3 1 2 3 4 5 6 7 7 6 5 5 6 7 9 10 12 13 15 17 18 20 20 20 20 21 21 21 20 19 19 18 17 17 17 17 16 16 15 13 12 12 11 11 10 10 10 9 9 9 9 9 9 9 10 11 13 14 16 17 17 17 16 15
7 7 8 9 9 10 11 12 12 12 12 12 13 14 15 16 16 16 14 11 7 5 3 2 2 2 3 4 5 5 4 3 4 4 5 7 8 9 10 12 13 15 16 17 18 18 19 19 19 19 19 18 18 17 16 16 15 14 13 12 11 11 11 10 10 10 9 9 9 9 9 8 9 9 9 10 11 13 14 15 16 16 16 16 16
7 8 8 9 9 10 11 12 13 13 13 13 12 13 14 15 16 16 16 14 11 7 5 3 2 2 3 3 4 4 3 4 4 4 5 6 7 8 9 10 10 10 11 13 15 16 16 16 16 17 17 17 16 15 14 13 13 12 11 10 10 10 10 9 9 9 9 9 9 9 8 8 8 8 9 10 11 12 13 14 15 15 16 16 16
7 8 8 9 10 11 11 12 13 14 15 14 14 13 13 13 14 14 15 15 14 11 8 6 4 3 3 3 3 3 3 3 3 3 4 5 6 7 8 8 8 8 8 9 10 11 12 13 13 13 13 13 12 12 12 11 11 11 10 10 10 9 9 9 9 8 9 9 9 9 8 8 8 8 9 9 10 12 13 13 14 15 15 16 16
6 7 8 8 9 10 11 12 13 14 15 15 15 15 14 13 13 13 13 13 13 12 11 9 7 5 4 3 3 2 2 3 3 3 3 3 4 5 7 7 7 7 8 8 9 10 10 11 11 11 11 11 11 11 11 11 10 10 10 10 9 9 9 9 8 8 8 8 9 9 8 8 8 9 9 9 10 11 12 12 13 14 15 15 15
5 6 7 8 8 9 10 11 12 13 14 15 15 16 15 14 14 13 12 12 12 12 11 10 9 7 6 5 4 3 3 4 4 4 3 3 3 4 5 6 7 7 8 9 9 9 9 10 10 10 10 10 10 11 10 10 10 10 10 9 9 9 9 9 8 8 8 8 8 8 8 8 8 9 9 9 10 10 11 11 13 13 14 14 14
5 5 6 7 7 8 9 10 10 11 12 13 13 14 15 15 14 13 13 12 12 11 11 10 10 9 8 7 6 5 5 4 4 4 4 4 3 3 3 4 5 6 7 7 7 8 8 9 9 9 9 9 9 10 9 9 9 9 9 9 9 9 9 9 8 8 8 8 8 8 8 8 8 8 8 8 9 10 10 11 12 13 13 13 14
4 5 6 6 7 7 8 9 9 10 10 11 11 12 13 13 14 14 13 12 11 10 9 9 8 8 7 7 6 5 5 4 4 3 3 3 2 2 2 3 4 5 5 6 6 7 7 7 8 8 8 8 8 8 8 8 8 8 8 8 8 8 8 8 8 8 8 8 8 8 8 8 8 8 8 8 9 9 9 10 11 12 12 12 13
Wind_Direction
236 238 240 240 240 240 243 244 238 230 229 232 232 233 234 234 234 235 235 232 226 222 222 223 224 224 226 231 237 246 253 260 267 274 281 283 280 277 277 274 268 269 271 272 275 275 276 281 282 281 278 278 280 272 271 277 273 274 276 270 281 284 273 274 271 268 275 273 272 277 279 280 278 282 294 299 298 289 284 294 299 296 298 302 304
238 239 241 241 239 239 239 235 229 227 228 231 231 230 230 229 230 231 230 228 224 222 224 229 233 236 239 241 243 246 251 258 264 271 275 277 276 275 273 270 267 269 272 272 274 276 277 277 277 277 276 276 276 273 276 278 271 273 280 275 278 280 272 270 268 267 270 270 270 275 282 285 279 281 292 298 300 291 282 289 294 288 290 297 300
236 238 240 239 236 234 232 229 226 226 228 229 228 227 227 230 231 229 228 227 224 225 231 237 243 246 246 247 248 250 252 256 260 263 266 267 268 268 268 269 268 269 271 272 274 277 279 279 277 276 275 274 274 273 276 281 277 272 275 272 273 278 277 273 268 263 265 270 270 268 279 288 284 282 286 292 299 296 287 291 294 288 288 294 298
233 234 235 234 232 229 228 227 226 227 228 227 228 228 230 234 233 231 230 229 228 232 238 243 246 248 249 251 253 254 255 256 257 258 260 260 259 260 263 266 267 268 270 271 273 275 276 277 277 275 273 272 273 271 270 275 275 268 266 267 266 270 276 280 280 272 269 274 274 271 279 287 287 287 286 287 293 293 290 292 295 294 295 297 299
230 230 230 230 230 229 228 225 226 227 226 225 225 227 231 233 232 232 232 233 235 238 242 245 247 248 251 254 256 259 259 259 258 256 256 256 257 260 263 265 266 268 270 271 272 274 276 277 276 274 272 270 270 268 266 268 269 266 267 267 263 264 271 278 282 279 274 277 277 276 282 286 287 289 287 287 292 291 289 293 295 296 299 301 302
228 229 230 229 229 229 226 223 225 226 225 225 224 225 229 232 233 233 235 236 238 241 244 247 249 251 254 256 259 262 263 263 260 255 254 255 257 261 264 264 266 267 268 270 272 273 275 276 275 274 272 269 266 265 264 264 264 262 264 264 262 266 272 275 279 278 274 276 277 276 280 284 287 290 289 290 293 292 290 292 293 294 297 301 303
227 228 230 230 230 229 226 225 227 228 228 227 227 230 233 235 236 237 238 239 239 242 245 248 251 254 257 258 260 262 263 263 260 256 255 255 257 261 263 264 266 267 267 268 270 272 274 274 273 271 269 266 263 262 263 263 264 261 261 262 263 268 273 274 277 277 273 275 278 277 279 282 284 287 289 291 292 292 291 290 290 293 295 298 301
224 226 230 233 234 233 230 229 229 230 229 227 230 234 234 235 237 238 239 240 240 243 245 247 251 255 258 260 263 264 264 264 263 260 258 259 260 263 265 266 267 267 267 268 270 273 276 276 273 269 267 262 259 260 261 262 264 263 262 263 265 268 272 273 274 276 274 275 278 279 281 283 284 284 287 290 290 290 291 290 291 293 294 296 299
226 229 233 238 241 238 234 233 233 233 233 234 240 241 235 234 237 239 242 243 243 245 246 248 252 255 258 261 264 265 264 264 263 261 262 267 267 266 267 268 269 269 269 270 271 272 274 275 273 270 268 263 257 257 261 262 263 264 263 264 266 267 269 269 270 274 276 278 281 282 283 286 286 285 286 289 289 289 291 292 292 293 294 296 298
238 241 243 245 244 240 238 238 236 236 238 242 247 247 242 241 242 245 249 248 247 249 249 252 255 257 260 262 264 265 265 264 262 259 264 271 272 270 269 267 267 270 272 272 271 270 270 271 271 269 268 265 260 259 262 263 263 263 263 265 267 268 269 270 271 274 277 280 283 285 285 287 288 287 287 290 291 291 293 294 294 294 296 297 297
249 249 250 250 247 244 243 241 238 240 244 247 248 248 247 247 247 248 249 248 250 253 254 255 258 260 262 264 264 264 263 262 262 262 266 271 273 272 269 266 266 271 273 272 272 272 270 269 268 266 264 263 263 263 264 264 262 260 261 263 266 269 272 273 275 277 279 280 282 285 286 287 288 288 289 290 291 291 293 295 295 296 297 297 296
252 251 250 250 250 249 248 247 245 246 249 250 251 252 253 252 252 253 253 252 254 257 259 259 260 263 264 264 265 264 262 261 264 267 270 272 272 271 269 267 269 272 273 273 273 272 270 268 266 265 263 262 262 263 265 265 263 260 259 261 266 271 275 276 277 279 280 281 283 285 286 287 287 288 288 288 288 290 292 294 295 296 297 297 296
251 253 252 252 253 253 253 253 252 253 254 255 257 258 258 258 257 258 258 257 258 260 261 263 264 265 266 265 266 266 264 264 267 269 271 272 271 270 269 270 272 272 273 274 272 269 267 265 264 263 262 261 262 264 265 264 264 262 261 264 269 274 275 276 278 279 280 282 283 284 286 286 286 286 286 287 289 291 292 293 295 295 296 296 296
250 252 254 255 256 256 257 259 259 259 259 260 261 261 261 262 261 261 260 259 260 262 263 264 265 265 266 266 266 266 266 267 269 270 272 272 272 271 271 272 272 272 273 273 269 266 264 263 262 262 262 262 264 266 265 264 265 266 267 270 274 276 277 277 279 280 280 281 282 283 284 285 285 285 287 288 290 291 292 293 294 295 296 296 296
254 255 256 257 257 257 259 261 262 262 262 262 263 263 264 263 263 264 264 263 263 264 265 265 265 266 267 268 267 268 269 270 270 271 272 272 272 271 271 270 269 270 271 269 266 264 263 262 261 261 262 265 266 267 266 266 267 269 271 274 277 278 279 280 281 281 282 282 282 282 283 284 284 286 288 289 290 291 292 293 294 295 296 296 296
255 257 259 260 260 260 261 262 263 265 265 265 266 266 266 267 266 266 266 266 267 267 267 267 267 267 268 269 269 270 270 271 271 272 273 271 270 269 269 268 268 268 267 266 265 264 263 263 261 260 262 265 268 269 269 268 269 270 272 274 277 278 280 281 282 282 282 283 283 282 283 284 285 286 288 289 290 291 293 294 294 296 297 297 297
258 259 260 262 262 262 264 264 264 265 267 269 269 268 268 269 268 268 269 269 269 269 269 270 270 270 270 271 271 271 271 272 273 273 271 269 267 267 267 267 266 265 264 264 264 263 262 262 262 260 262 265 267 269 271 271 272 272 273 274 276 277 280 282 283 283 282 282 283 283 284 285 286 287 288 289 290 291 292 293 294 296 297 297 297
263 263 264 265 265 264 265 267 267 267 269 272 273 272 271 270 270 271 272 271 270 270 271 272 271 271 271 271 271 272 273 273 272 270 269 267 267 267 266 266 265 262 262 263 263 261 261 263 263 261 262 265 268 270 272 273 274 274 274 274 275 276 279 281 283 283 283 283 284 284 285 286 287 287 288 289 289 290 291 292 294 296 297 297 297
262 262 263 266 267 266 266 267 268 268 270 273 274 274 273 273 272 272 272 272 271 271 272 273 272 271 271 270 270 272 275 273 270 268 267 267 267 267 266 266 264 261 261 262 262 261 261 263 263 263 264 267 269 271 273 274 274 275 275 275 276 277 278 280 281 282 283 284 284 285 286 287 287 288 288 288 289 289 291 292 294 295 296 296 296
260 262 263 264 265 266 266 267 267 268 269 271 273 273 272 273 273 272 271 271 272 272 272 273 272 272 272 271 270 271 274 273 270 268 268 266 266 265 264 266 265 261 260 262 261 261 262 262 263 264 266 268 270 272 273 274 274 275 276 277 278 278 278 279 280 282 283 284 284 286 287 288 288 288 289 289 289 290 290 291 293 294 295 295 296
263 264 264 264 264 265 265 266 267 268 269 270 271 271 271 271 273 273 273 273 273 273 273 272 272 272 271 269 269 271 273 273 271 269 267 266 265 263 262 265 266 262 260 261 261 261 262 263 263 265 266 268 269 271 272 273 274 276 277 277 278 279 279 280 281 282 283 285 286 287 288 289 289 289 290 290 290 290 290 290 292 293 293 294 295
266 266 265 264 264 265 265 266 267 268 268 269 269 270 270 270 271 272 273 273 273 274 274 273 272 271 270 269 269 271 272 272 271 268 266 265 264 262 261 264 266 262 260 261 261 261 262 262 262 264 265 266 268 269 271 272 274 275 277 277 278 279 280 281 281 283 284 286 287 288 288 289 289 290 290 291 292 291 291 290 292 292 293 294 295
268 268 268 267 267 268 268 268 268 268 268 269 269 269 270 269 269 270 272 273 273 273 274 273 272 272 271 270 270 271 271 271 270 268 266 264 263 261 260 261 263 262 260 260 260 261 261 261 262 264 265 266 268 269 270 272 274 275 276 277 278 280 280 281 282 283 284 286 287 288 288 288 289 290 290 290 290 291 291 292 293 294 294 295 295
269 269 269 269 268 268 268 268 268 268 267 268 269 269 270 271 271 270 271 272 272 272 272 272 271 271 271 270 270 271 270 270 269 267 264 262 261 261 260 260 261 261 261 261 261 261 260 261 262 264 265 266 267 269 271 273 274 275 276 278 279 280 280 281 282 283 284 285 287 288 288 288 289 289 289 289 289 291 292 293 293 294 295 295 295
270 270 269 269 268 268 268 268 268 268 268 269 270 271 271 272 271 271 270 270 270 270 270 269 269 270 269 269 269 269 269 269 268 266 263 262 262 261 261 261 260 260 260 260 260 259 259 260 262 263 265 266 268 269 271 273 274 275 277 278 279 280 280 281 282 283 283 285 286 287 287 288 288 288 289 290 291 292 292 293 293 294 295 295 295
272 271 271 271 271 271 271 270 271 271 270 271 271 271 271 271 271 271 270 269 269 269 268 268 268 268 268 268 267 267 267 268 267 266 264 262 260 260 261 261 260 260 260 259 258 258 259 260 262 263 264 266 268 269 271 272 274 276 277 278 279 279 279 281 282 283 283 285 286 287 287 287 288 289 290 291 292 293 293 293 293 294 294 295 295
273 273 273 273 273 273 273 273 273 272 272 272 272 272 272 272 271 270 270 269 269 268 268 267 267 267 267 267 266 266 266 266 266 266 263 260 258 260 260 260 259 259 259 258 257 258 259 260 261 263 265 267 268 270 272 273 275 277 277 278 278 279 280 282 283 283 284 284 285 285 286 287 288 290 291 292 292 293 293 293 294 294 294 294 294
274 274 274 274 274 274 274 274 274 274 273 273 273 272 272 272 271 271 270 270 269 268 268 268 267 266 266 266 265 265 264 264 264 264 261 259 259 258 257 256 257 258 257 256 256 257 258 259 260 262 265 267 269 271 273 274 275 276 277 278 278 280 282 284 284 284 283 283 284 285 286 287 289 290 291 292 292 292 292 293 293 293 294 294 295
276 276 275 275 275 275 275 275 274 274 274 273 273 272 272 271 271 270 269 269 268 268 268 267 267 267 266 265 265 264 263 262 263 262 260 258 256 252 252 256 258 257 255 254 254 255 256 258 260 261 264 266 268 270 272 273 275 277 278 280 281 281 282 284 284 283 283 284 285 286 287 288 289 290 291 292 292 292 292 293 293 294 295 295 295
277 277 276 275 275 276 276 276 275 275 274 274 274 273 272 271 270 269 268 267 266 266 266 266 266 265 265 264 264 263 262 262 261 260 259 256 252 249 251 255 254 253 253 253 253 253 254 256 258 259 261 264 267 270 271 273 275 277 279 282 283 282 282 283 283 284 285 286 287 287 288 288 289 290 291 291 291 292 293 294 295 295 295 295 295
278 277 277 276 277 278 278 277 276 276 276 276 276 275 274 273 271 270 270 269 268 267 266 266 265 265 264 264 263 262 262 262 261 259 256 253 249 248 249 249 247 248 251 253 253 253 253 255 257 257 259 263 267 270 271 273 275 277 279 281 282 283 283 283 284 286 288 289 289 288 288 289 290 290 291 291 292 293 294 295 295 295 295 296 296
278 278 278 278 278 279 279 278 278 277 277 277 277 277 277 276 274 273 272 271 270 270 268 266 265 265 264 264 264 263 262 260 259 256 253 250 248 249 249 248 248 248 249 250 251 252 253 256 258 257 259 263 267 269 271 272 274 276 278 280 281 282 283 284 285 287 288 288 289 289 289 290 290 291 291 292 293 294 294 295 296 296 297 297 298
280 279 279 279 279 280 280 280 279 279 278 278 278 278 277 277 276 275 273 271 270 270 269 267 266 264 263 263 263 262 260 258 256 254 251 249 249 251 250 249 249 248 248 249 251 253 255 257 258 258 260 263 265 267 269 270 273 275 277 279 281 283 285 287 288 288 287 287 289 289 289 290 291 291 292 293 294 295 296 296 297 298 299 299 299
283 282 281 281 282 281 281 281 281 281 281 280 280 279 279 278 277 276 275 273 271 270 269 268 266 264 262 262 262 261 259 256 255 253 251 251 251 250 249 249 248 247 246 249 252 254 255 256 256 257 258 261 263 264 266 268 271 274 276 280 283 286 288 289 289 288 288 289 290 290 290 290 291 292 293 295 296 296 297 298 299 300 301 301 301
285 285 284 284 285 284 284 284 283 284 284 284 284 283 282 281 279 278 276 274 272 271 270 268 267 265 263 261 260 260 259 257 255 253 251 250 249 247 246 246 247 245 245 247 250 252 252 252 252 253 255 258 261 262 263 266 270 273 276 279 283 286 289 289 288 289 290 291 291 291 291 292 293 293 294 296 297 298 299 301 303 304 305 305 304
288 288 288 289 289 289 288 288 287 288 289 290 290 289 287 285 282 279 276 274 271 269 268 267 266 266 264 261 259 259 258 256 254 252 250 249 247 245 243 243 242 242 241 242 245 247 247 247 249 250 253 256 258 259 261 264 268 272 275 278 282 286 288 289 289 290 292 292 291 292 295 296 296 296 297 298 300 301 303 306 308 310 310 308 306
295 293 293 295 296 297 295 294 294 296 298 299 300 299 296 292 286 281 277 273 270 268 266 264 263 264 263 261 259 258 257 255 253 252 251 248 246 244 241 237 235 234 235 237 241 241 240 242 247 250 252 253 255 257 259 261 264 268 272 277 283 287 287 288 289 291 292 293 293 295 297 297 297 299 300 303 305 307 309 311 314 315 314 312 310
302 300 299 300 303 305 305 305 307 309 310 311 310 309 306 302 295 287 280 274 269 266 264 261 260 261 262 261 259 257 255 253 250 248 248 246 244 242 238 233 231 230 231 233 236 236 235 239 245 249 251 252 253 254 255 258 262 266 271 278 284 286 286 288 289 289 290 292 294 296 298 299 299 302 304 307 310 312 313 316 318 320 320 317 315
310 307 305 306 311 315 316 317 318 319 320 321 320 318 315 310 302 294 286 277 269 263 261 258 257 258 260 259 257 256 254 252 248 245 244 242 240 238 235 232 229 229 228 229 232 234 235 238 243 247 250 252 252 252 253 257 262 267 272 279 283 283 284 287 288 286 287 290 293 295 298 300 302 305 307 310 313 316 318 320 324 326 325 322 318
323 319 315 315 319 322 322 322 323 325 328 330 330 328 326 321 312 302 294 286 273 262 257 255 254 255 256 256 254 252 252 251 248 244 242 240 238 236 234 231 228 226 227 228 230 232 234 236 240 245 249 251 252 254 255 258 263 268 273 278 280 280 282 284 283 282 285 290 292 294 298 302 305 308 312 315 318 321 324 326 329 331 330 326 321
335 333 329 326 326 328 328 327 328 331 335 338 339 339 338 334 327 316 307 298 282 263 253 252 252 253 252 251 248 247 249 251 250 246 241 238 236 235 233 230 227 226 226 227 228 230 233 236 240 244 249 252 255 257 257 259 265 269 272 274 274 275 277 279 279 280 284 288 289 292 297 302 306 310 315 320 323 326 329 331 332 335 335 331 326
344 345 344 339 335 334 334 334 335 338 340 343 347 350 350 348 345 338 327 315 298 273 256 253 252 249 247 246 243 242 246 250 250 247 241 236 232 231 229 226 225 225 225 225 227 230 235 240 243 246 249 252 255 256 257 260 264 267 267 268 270 271 272 273 274 277 281 283 284 289 295 301 307 312 317 323 328 331 334 335 336 337 337 335 330
351 353 353 350 347 344 341 340 341 344 347 348 352 357 1 2 3 1 355 344 329 295 259 249 244 238 237 239 235 233 238 246 245 240 235 229 225 225 224 222 221 221 222 225 228 232 237 241 244 246 248 250 252 253 254 256 259 262 263 264 266 266 267 268 270 273 276 276 279 285 292 299 307 313 318 324 330 334 337 339 339 339 339 338 336
358 0 1 1 359 358 356 354 353 353 355 356 359 4 8 12 14 14 14 14 14 20 84 197 216 217 218 221 217 215 220 229 228 223 220 218 218 219 218 218 219 221 223 227 230 233 236 240 242 243 245 246 248 250 252 254 256 257 259 260 260 260 261 264 267 270 271 271 275 281 288 297 306 312 317 324 331 336 340 341 341 340 341 342 342
14 14 15 14 13 13 13 12 9 7 5 5 8 12 16 20 22 24 26 27 27 36 62 99 151 176 178 181 185 188 193 199 202 203 203 204 208 210 212 215 218 221 225 229 230 231 233 236 238 240 242 244 246 248 249 251 251 251 251 253 253 254 258 262 265 268 269 269 270 276 285 295 303 308 314 323 332 337 340 342 342 343 344 345 345
27 27 27 26 26 25 23 22 20 18 17 16 16 17 20 25 28 30 32 35 38 44 58 78 103 128 143 153 162 171 181 191 197 199 196 194 197 201 205 209 212 215 221 225 226 226 228 231 234 237 241 242 242 240 240 241 243 244 245 247 249 251 256 260 264 267 268 268 269 275 283 292 301 305 310 321 331 335 337 340 343 345 346 347 347
35 35 34 34 34 33 31 29 28 26 25 25 25 24 24 26 29 31 33 36 40 47 55 66 80 99 120 134 144 154 169 180 185 187 188 191 196 199 203 206 208 211 215 218 218 219 223 226 230 234 234 232 230 231 232 235 237 239 241 244 247 250 253 257 261 266 268 267 269 274 279 287 297 304 311 320 328 331 334 338 342 345 347 349 349
38 36 34 33 34 34 33 32 32 31 30 30 30 29 28 28 29 31 33 36 40 44 50 58 69 84 100 112 120 132 151 164 168 170 174 184 194 201 206 209 209 209 209 210 213 217 221 223 225 225 223 221 224 228 231 234 236 238 240 242 245 248 252 255 260 265 267 267 269 272 277 284 294 302 310 318 324 326 331 337 341 345 348 350 351
34 35 34 32 31 31 30 30 31 31 32 32 32 32 31 31 31 32 33 35 39 44 48 53 60 69 78 84 89 102 124 141 146 145 145 152 170 187 197 203 206 208 210 213 218 221 222 221 221 222 221 222 225 228 231 234 238 240 240 241 243 248 252 254 258 264 268 270 270 272 277 284 292 299 308 316 320 323 328 334 339 343 347 350 352
24 29 31 29 27 27 27 27 27 28 29 30 32 33 33 33 33 33 33 36 40 46 51 56 61 65 70 74 78 85 97 107 113 117 120 124 136 156 173 185 195 201 206 211 213 213 212 214 216 218 219 221 224 227 230 235 238 238 237 239 244 248 251 253 257 263 269 272 272 273 276 282 289 297 306 313 317 321 325 331 337 342 347 350 352
20 21 24 24 24 23 23 23 23 24 24 25 26 29 31 33 34 35 35 36 38 42 48 55 60 63 66 68 70 75 83 91 97 108 120 129 145 176 191 194 196 198 199 201 202 202 203 208 212 215 218 223 226 228 231 233 233 232 234 239 245 249 252 255 260 265 269 272 273 273 276 281 289 296 301 307 313 318 323 328 334 341 345 348 350